Austin, TX

11:44 AM CST on February 22, 2017 (GMT -0600)
Austin Bergstrom International

Weather History for KAUS - April, 2013

Change the Weather History Date:

Wednesday, April 3, 2013

  Actual Average Record
Temperature  
Mean Temperature 54 °F 64 °F  
Max Temperature 57 °F 77 °F 89 °F (1989)
Min Temperature 50 °F 51 °F 35 °F (1987)
Degree Days  
Heating Degree Days 11 4  
Month to date heating degree days 11 12  
Since 1 July heating degree days 1545 1849  
Cooling Degree Days 0 3  
Month to date cooling degree days 5 9  
Year to date cooling degree days 82 67  
Growing Degree Days 3 (Base 50)    
Moisture  
Dew Point 51 °F    
Average Humidity 90    
Maximum Humidity 93    
Minimum Humidity 86    
Precipitation  
Precipitation 0.45 in 0.07 in 0.45 in (2013)
Month to date precipitation 3.02 0.21  
Year to date precipitation 7.74 7.50  
Snow  
Snow 0.00 in - - ()
Month to date snowfall 0.0  
Since 1 July snowfall T  
Snow Depth 0.00 in    
Sea Level Pressure  
Sea Level Pressure 29.99 in    
Wind  
Wind Speed 11 mph (North)    
Max Wind Speed 23 mph    
Max Gust Speed 28 mph    
Visibility 9 miles    
Events Rain , Thunderstorm    
T = Trace of Precipitation, MM = Missing Value Source: NWS Daily Summary

Daily Weather History Graph

Daily Weather History Graph

Search for Another Location

Airport or City:

Trip Planner

Search our weather history database for the weather conditions in past years. The results will help you decide how hot, cold, wet, or windy it might be!

Date:

Astronomy

Apr. 03, 2013 Rise Set
Actual Time 7:17 AM CDT 7:50 PM CDT
Civil Twilight 6:53 AM CDT 8:15 PM CDT
Nautical Twilight 6:24 AM CDT 8:43 PM CDT
Astronomical Twilight 5:55 AM CDT 9:12 PM CDT
Moon 2:32 AM CDT (4/3) 1:30 PM CDT (4/3)
Length of Visible Light 13h 22m
Length of Day
12h 33m
Last Quarter, 44% of the Moon is Illuminated
Apr 3
Last Quarter
Apr 10
New
Apr 18
First Quarter
Apr 25
Full
May 2
Last Quarter

Hourly Weather History & Observations

Time (CDT) Temp. Dew Point Humidity Pressure Visibility Wind Dir Wind Speed Gust Speed Precip Events Conditions
12:22 AM 55.4 °F 53.6 °F 94% 29.99 in 3.0 mi NW 10.4 mph 23.0 mph 0.06 in Rain , Thunderstorm Thunderstorms and Rain
12:53 AM 55.0 °F 53.1 °F 93% 29.99 in 8.0 mi NNW 3.5 mph - 0.14 in Rain , Thunderstorm Light Thunderstorms and Rain
1:53 AM 55.9 °F 54.0 °F 93% 29.93 in 7.0 mi NE 9.2 mph - 0.20 in Rain , Thunderstorm Light Thunderstorms and Rain
2:27 AM 55.4 °F 53.6 °F 94% 29.80 in 7.0 mi East 18.4 mph 27.6 mph 0.12 in Rain Light Rain
2:40 AM 55.4 °F 55.4 °F 100% 29.87 in 10.0 mi NNW 12.7 mph 21.9 mph 0.12 in Rain Light Rain
2:53 AM 55.9 °F 55.0 °F 97% 29.83 in 10.0 mi North 12.7 mph - 0.12 in Rain Light Rain
3:04 AM 55.4 °F 53.6 °F 94% 29.83 in 10.0 mi North 17.3 mph - 0.00 in   Overcast
3:38 AM 57.2 °F 53.6 °F 88% 29.86 in 10.0 mi North 4.6 mph - 0.00 in   Overcast
3:53 AM 57.0 °F 54.0 °F 89% 29.85 in 10.0 mi North 10.4 mph - 0.00 in   Mostly Cloudy
4:05 AM 55.4 °F 53.6 °F 94% 29.84 in 10.0 mi North 15.0 mph - N/A   Mostly Cloudy
4:42 AM 53.6 °F 53.6 °F 100% 29.89 in 10.0 mi North 5.8 mph - N/A   Mostly Cloudy
4:53 AM 55.0 °F 54.0 °F 96% 29.89 in 10.0 mi North 6.9 mph - N/A   Mostly Cloudy
5:15 AM 55.4 °F 53.6 °F 94% 29.91 in 10.0 mi North 13.8 mph - N/A   Overcast
5:53 AM 54.0 °F 52.0 °F 93% 29.91 in 10.0 mi North 10.4 mph - N/A   Overcast
6:53 AM 55.0 °F 52.0 °F 89% 29.95 in 10.0 mi NNW 9.2 mph - N/A   Overcast
7:23 AM 55.4 °F 51.8 °F 88% 29.96 in 10.0 mi North 10.4 mph - N/A   Overcast
7:53 AM 55.9 °F 52.0 °F 87% 29.97 in 10.0 mi North 4.6 mph - N/A   Overcast
8:13 AM 55.4 °F 53.6 °F 94% 30.00 in 10.0 mi North 13.8 mph - N/A   Overcast
8:53 AM 55.0 °F 53.1 °F 93% 30.00 in 10.0 mi North 13.8 mph - N/A   Overcast
9:33 AM 53.6 °F 51.8 °F 94% 30.02 in 10.0 mi North 13.8 mph - N/A   Overcast
9:53 AM 55.0 °F 51.1 °F 86% 30.02 in 10.0 mi North 11.5 mph - N/A   Overcast
10:49 AM 55.4 °F 51.8 °F 88% 30.06 in 9.0 mi North 12.7 mph - N/A Thunderstorm Thunderstorm
10:53 AM 55.0 °F 51.1 °F 86% 30.06 in 9.0 mi North 12.7 mph - N/A Thunderstorm Thunderstorm
11:22 AM 53.6 °F 51.8 °F 94% 30.03 in 5.0 mi NNE 9.2 mph - 0.03 in Rain Light Rain
11:46 AM 53.6 °F 51.8 °F 94% 29.98 in 6.0 mi NE 12.7 mph - 0.04 in Rain , Thunderstorm Light Thunderstorms and Rain
11:53 AM 54.0 °F 52.0 °F 93% 29.96 in 7.0 mi NE 13.8 mph - 0.04 in Rain , Thunderstorm Light Thunderstorms and Rain
12:38 PM 53.6 °F 53.6 °F 100% 30.02 in 6.0 mi NE 6.9 mph - 0.03 in Rain Light Rain
12:53 PM 54.0 °F 52.0 °F 93% 30.06 in 9.0 mi NW 11.5 mph - 0.03 in Rain Light Rain
1:01 PM 53.6 °F 51.8 °F 94% 30.07 in 4.0 mi NW 10.4 mph 18.4 mph 0.01 in Rain , Thunderstorm Thunderstorms and Rain
1:53 PM 53.1 °F 51.1 °F 93% 30.01 in 8.0 mi North 6.9 mph - 0.06 in   Overcast
2:53 PM 53.1 °F 52.0 °F 96% 30.00 in 10.0 mi NNW 9.2 mph - 0.01 in Rain Light Rain
3:53 PM 53.1 °F 50.0 °F 89% 30.01 in 10.0 mi NNW 15.0 mph 19.6 mph 0.00 in   Overcast
4:21 PM 51.8 °F 48.2 °F 88% 30.01 in 10.0 mi North 13.8 mph 20.7 mph N/A   Overcast
4:47 PM 51.8 °F 48.2 °F 88% 30.02 in 10.0 mi NNW 15.0 mph 24.2 mph 0.00 in Rain Light Rain
4:53 PM 52.0 °F 48.9 °F 89% 30.03 in 10.0 mi NNW 13.8 mph 24.2 mph 0.00 in Rain Light Rain
5:53 PM 52.0 °F 48.9 °F 89% 30.05 in 10.0 mi NNW 11.5 mph - N/A   Overcast
6:53 PM 52.0 °F 48.0 °F 86% 30.06 in 10.0 mi NNW 9.2 mph 20.7 mph N/A   Overcast
7:31 PM 51.8 °F 48.2 °F 88% 30.07 in 10.0 mi NNW 10.4 mph - N/A   Overcast
7:53 PM 51.1 °F 48.0 °F 89% 30.08 in 10.0 mi NNW 9.2 mph - N/A   Overcast
8:48 PM 51.8 °F 48.2 °F 88% 30.09 in 10.0 mi NNW 8.1 mph - N/A   Overcast
8:53 PM 51.1 °F 48.9 °F 92% 30.09 in 10.0 mi NNW 10.4 mph - N/A   Overcast
9:53 PM 52.0 °F 48.9 °F 89% 30.12 in 10.0 mi NNW 8.1 mph - 0.00 in   Light Drizzle
10:53 PM 51.1 °F 48.0 °F 89% 30.14 in 10.0 mi NNW 11.5 mph - 0.00 in   Overcast
11:53 PM 50.0 °F 46.9 °F 89% 30.14 in 10.0 mi NNW 10.4 mph - N/A   Overcast